TimeCDT,TemperatureF,Dew PointF,Humidity,Sea Level PressureIn,VisibilityMPH,Wind Direction,Wind SpeedMPH,Gust SpeedMPH,PrecipitationIn,Events,Conditions,WindDirDegrees,DateUTC
12:54 AM,35.1,33.1,92,29.86,9.0,North,-9999.0,-,0.00,,Overcast,0,2013-03-18 05:54:00
1:42 AM,35.6,33.8,93,29.80,8.0,North,-9999.0,-,N/A,,Overcast,0,2013-03-18 06:42:00
1:54 AM,34.0,33.1,96,29.81,5.0,NE,32.2,72.5,N/A,,Overcast,40,2013-03-18 06:54:00
2:54 AM,34.0,33.1,96,29.77,7.0,ENE,16.1,24.2,N/A,,Overcast,70,2013-03-18 07:54:00
3:54 AM,34.0,33.1,96,29.73,3.0,East,16.1,-,N/A,,Overcast,80,2013-03-18 08:54:00
4:05 AM,33.8,33.8,100,29.72,2.5,East,12.7,-,N/A,,Overcast,80,2013-03-18 09:05:00
4:41 AM,33.8,33.8,100,29.71,3.0,East,13.8,-,N/A,,Overcast,80,2013-03-18 09:41:00
4:54 AM,34.0,33.1,96,29.71,3.0,East,13.8,-,N/A,,Overcast,80,2013-03-18 09:54:00
5:28 AM,33.8,33.8,100,29.70,2.5,East,10.4,-,0.00,,Overcast,80,2013-03-18 10:28:00
5:54 AM,34.0,34.0,100,29.71,1.8,ENE,10.4,-,0.01,Rain,Light Rain,70,2013-03-18 10:54:00
6:09 AM,33.8,33.8,100,29.70,2.0,ENE,9.2,-,0.01,Rain,Light Rain,70,2013-03-18 11:09:00
6:36 AM,33.8,33.8,100,29.69,1.8,ENE,9.2,-,0.03,Rain,Light Rain,70,2013-03-18 11:36:00
6:43 AM,33.8,33.8,100,29.68,2.0,ENE,9.2,-,0.03,Rain,Light Rain,70,2013-03-18 11:43:00
6:54 AM,34.0,34.0,100,29.69,2.0,East,9.2,-,0.03,,Overcast,80,2013-03-18 11:54:00
7:54 AM,34.0,34.0,100,29.70,2.5,East,4.6,-,N/A,,Overcast,90,2013-03-18 12:54:00
8:08 AM,35.6,35.6,100,29.68,3.0,East,5.8,-,N/A,,Overcast,80,2013-03-18 13:08:00
8:16 AM,35.6,35.6,100,29.68,2.5,East,4.6,-,N/A,,Overcast,80,2013-03-18 13:16:00
8:54 AM,35.1,35.1,100,29.68,2.0,East,5.8,-,N/A,,Overcast,80,2013-03-18 13:54:00
9:29 AM,35.6,35.6,100,29.68,3.0,Calm,Calm,-,N/A,,Overcast,0,2013-03-18 14:29:00
9:54 AM,36.0,36.0,100,29.70,4.0,Calm,Calm,-,N/A,,Overcast,0,2013-03-18 14:54:00
10:33 AM,35.6,35.6,100,29.68,2.5,West,5.8,-,N/A,,Overcast,280,2013-03-18 15:33:00
10:54 AM,36.0,36.0,100,29.70,3.0,WSW,8.1,-,N/A,,Overcast,250,2013-03-18 15:54:00
11:54 AM,37.0,37.0,100,29.70,5.0,West,10.4,-,N/A,,Overcast,280,2013-03-18 16:54:00
12:17 PM,37.4,35.6,93,29.69,7.0,West,12.7,-,N/A,,Overcast,270,2013-03-18 17:17:00
12:54 PM,37.0,34.0,89,29.72,10.0,West,12.7,-,N/A,,Overcast,270,2013-03-18 17:54:00
1:30 PM,37.4,33.8,87,29.72,10.0,West,15.0,21.9,N/A,,Overcast,270,2013-03-18 18:30:00
1:54 PM,37.9,33.1,83,29.73,9.0,West,16.1,26.5,N/A,,Overcast,280,2013-03-18 18:54:00
2:54 PM,39.9,34.0,79,29.73,10.0,West,18.4,24.2,N/A,,Overcast,280,2013-03-18 19:54:00
3:54 PM,41.0,34.0,76,29.74,10.0,West,17.3,26.5,N/A,,Overcast,270,2013-03-18 20:54:00
4:54 PM,41.0,33.1,73,29.76,10.0,West,17.3,26.5,N/A,,Overcast,280,2013-03-18 21:54:00
5:34 PM,42.8,33.8,70,29.75,10.0,West,11.5,19.6,N/A,,Mostly Cloudy,280,2013-03-18 22:34:00
5:54 PM,43.0,33.1,68,29.77,10.0,West,11.5,-,N/A,,Mostly Cloudy,280,2013-03-18 22:54:00
6:54 PM,44.1,30.9,60,29.80,10.0,West,15.0,21.9,N/A,,Partly Cloudy,280,2013-03-18 23:54:00
7:54 PM,39.0,30.0,70,29.83,10.0,NW,13.8,19.6,N/A,,Clear,320,2013-03-19 00:54:00
8:54 PM,33.1,25.0,72,29.88,10.0,NW,15.0,23.0,N/A,,Clear,310,2013-03-19 01:54:00
9:54 PM,30.9,21.9,69,29.93,10.0,NW,16.1,20.7,N/A,,Clear,310,2013-03-19 02:54:00
10:54 PM,28.9,21.0,72,29.96,10.0,WNW,13.8,21.9,N/A,,Clear,300,2013-03-19 03:54:00
11:54 PM,28.0,18.0,66,29.98,10.0,WNW,17.3,24.2,N/A,,Clear,300,2013-03-19 04:54:00